sat.trackr.live / text

‹ back to catalog

ORBCOMM FM04

NORAD 25159 · 1998-007C

PAYLOAD ACTIVE UNKNOWN

§ Identity

Operator
Country
ORB
Launch date
1998-02-10
Launch site
AFWTR
Launch vehicle
Mass (kg)
RCS (m²)
0.88

Purposes: comms

External: N2YO · Heavens-Above · Gunter

§ Orbital elements

Epoch: 2026-09-13T00:58:35.267808Z

Period
100.29 min
Inclination
107.9604°
Eccentricity
0.0040652
Mean motion
14.35860369 rev/d
Perigee alt
743.1 km
Apogee alt
801.3 km
Semi-major
7,150.3 km
B*
2.3867e-4
RAAN
350.2362°
Arg perigee
175.3605°
Mean anomaly
184.7920°
Rev number
48,920

§ Raw data

ORBCOMM FM041 25159U 98007C   26256.04068597  .00000566  00000+0  23867-3 0  99912 25159 107.9604 350.2362 0040652 175.3605 184.7920 14.35860369489205

JSON: /api/v1/satellites/25159 · /tle

For live sub-satellite position, see the globe view (requires WebGL).

§ Visibility from observer

Set your observer location to see the next 7 days of passes ≥ 10°. The values pass through the URL so the page stays shareable.

No JS? Fill the form by hand. The geolocation button needs JavaScript.